Regional Weather Roundup
Issued by NWS

Home | Current Version | Previous Version | Graphics & Text | Print | Product List | Glossary On
Versions: 1 2 3 4 5 6 7 8 9 10 11 12 13 14 15 16 17 18 19 20 21 22 23 24 25 26 27
000
ASUS45 KCYS 181610
RWRWY

WYOMING REGIONAL WEATHER ROUNDUP
NATIONAL WEATHER SERVICE CHEYENNE WY
1000 AM MDT WED OCT 18 2017

NOTE:  "FAIR" INDICATES FEW OR NO CLOUDS BELOW 12,000 FEET
WITH NO SIGNIFICANT WEATHER AND/OR OBSTRUCTIONS TO VISIBILITY.

WYZ001-181700-
YELLOWSTONE NATIONAL PARK

CITY           SKY/WX    TMP DP  RH WIND       PRES   REMARKS
LK YELLOWSTONE   N/A     44  19  36 VRB5      30.24
W YELLOWSTONE  NOT AVBL

$$
WYZ002>013-054>058-071-098>099-181700-
NORTHERN WYOMING

CITY           SKY/WX    TMP DP  RH WIND       PRES   REMARKS
JACKSON        FAIR      45  19  35 SW6       30.24R
CODY           FAIR      57  17  21 CALM      30.10R
GREYBULL       FAIR      48  26  42 CALM      30.06R
WORLAND        FAIR      51  28  41 SW6       30.07R
SHERIDAN       FAIR      51  28  41 SE5       30.08F
BUFFALO        FAIR      50  22  33 E7        30.12R
GILLETTE         N/A     49  29  46 MISG      30.12R
HULETT         FAIR      48  23  37 E3        30.12S
NEWCASTLE      FAIR      55  27  33 W10       30.10R

$$
WYZ014>020-022>026-101>103-181700-
CENTRAL WYOMING

CITY           SKY/WX    TMP DP  RH WIND       PRES   REMARKS
BIG PINEY      FAIR      42  14  32 CALM      30.30R
PINEDALE       FAIR      41  19  42 NW3       30.30R
DUBOIS         FAIR      45  16  31 W12       30.22R
LANDER         FAIR      58  17  20 W3        30.13R
RIVERTON       FAIR      54  21  27 W6        30.14R
CASPER         FAIR      57  12  17 SW13      30.14R
DOUGLAS        FAIR      60  14  16 VRB5      30.12R

$$
WYZ021-027>030-104>119-181700-
SOUTHERN WYOMING

CITY           SKY/WX    TMP DP  RH WIND       PRES   REMARKS
EVANSTON       FAIR      49  13  23 SE7       30.30S
KEMMERER       FAIR      46  16  29 CALM      30.30S
FORT BRIDGER   FAIR      53  13  20 W6        30.32S
ROCK SPRINGS   FAIR      50   6  16 W8        30.28S
DIXON          FAIR      48  16  28 SE6       30.32S
RAWLINS        FAIR      54   8  16 W20G29    30.23S
SARATOGA       FAIR      54  18  24 CALM      30.27F
LARAMIE        FAIR      58   9  14 SW14      30.23R
CHEYENNE       FAIR      62  11  13 W13G24    30.18R
TORRINGTON     FAIR      64  13  13 W8        30.08R
PINE BLUFFS    FAIR      64  14  14 NW15G21   30.15R

$$




USA.gov is the U.S. government's official web portal to all federal, state and local government web resources and services.